Flag for Indonesia Weather past 2 weeks in Makassar, South Sulawesi, Indonesia

Now
75 °F

Thunderstorms. Passing clouds.


Feels Like: 73 °F
Forecast: 76 / 83 °F
Wind: 3 mph from East

Location: Ujung Pandang / Hasanuddin

Current Time: Mar 2, 2015 at 8:08:52 PM

Latest Report: Mar 2, 2015 at 7:30 PM


Visibility: 2 mi

Pressure: 29.83 "Hg

Humidity: 100%

Dew point: 75 °F

Location of MakassarLocation

Historic Weather in Makassar — Graph

°F

Makassar temperature yesterday

Maximum temperature yesterday: 88 °F (at 1:00 PM)
Minimum temperature yesterday: 75 °F (at 5:00 AM)
Average temperature yesterday: 81 °F

Past Weeks' High & Low Weather Summary

 TemperatureHumidityPressure
High91 °F (Feb 22, 12:00 PM)100% (Feb 15, 8:30 PM)29.95 "Hg (Feb 15, 8:30 PM)
Low72 °F (Feb 21, 6:00 AM)49% (Feb 27, 2:00 PM)29.71 "Hg (Feb 27, 3:30 PM)
Average81 °F86%29.83 "Hg
* Reported Feb 15 6:00 PM — Mar 2 6:30 PM, Makassar, Weather by CustomWeather, © 2015

Note: Actual official high and low records may vary slightly from our data, if they occured in-between our weather recording intervals... More about our weather records

Advertising

Makassar weather history for previous 24 hours

 ConditionsComfort  
Time TempWeatherWind HumidityBarometerVisibility
6:30 PM
Mon, Mar 2
75 °FThunderstorms. Passing clouds.No wind100%29.80 "Hg4 mi
6:00 PM77 °FThunderstorms. Scattered clouds.8 mph100%29.80 "Hg2 mi
5:30 PM77 °FLight rain. Scattered clouds.2 mph100%29.77 "Hg4 mi
5:00 PM77 °FLight rain. Scattered clouds.2 mph100%29.77 "Hg4 mi
4:30 PM77 °FLight rain. Scattered clouds.7 mph100%29.77 "Hg2 mi
4:00 PM79 °FRain. Scattered clouds.5 mph94%29.77 "Hg2 mi
3:30 PM81 °FLight rain. Scattered clouds.5 mph89%29.74 "Hg5 mi
3:00 PM82 °FLight rain. Scattered clouds.3 mph79%29.77 "Hg5 mi
2:30 PM82 °FLight rain. Scattered clouds.5 mph84%29.77 "Hg5 mi
2:00 PM82 °FLight rain. Scattered clouds.6 mph84%29.80 "Hg5 mi
1:30 PM81 °FScattered clouds.6 mph89%29.80 "Hg5 mi
1:00 PM81 °FScattered clouds.6 mph89%29.83 "Hg5 mi
12:30 PM79 °FScattered clouds.9 mph94%29.83 "Hg5 mi
12:00 PM79 °FLight rain. Scattered clouds.6 mph94%29.83 "Hg5 mi
11:30 AM82 °FPartly sunny.8 mph79%29.86 "Hg5 mi
11:00 AM86 °FScattered clouds.3 mph75%29.83 "HgN/A
10:30 AM86 °FScattered clouds.2 mph70%29.86 "HgN/A
10:00 AM82 °FScattered clouds.3 mph84%29.86 "HgN/A
9:30 AM81 °FScattered clouds.1 mph84%29.86 "HgN/A
9:00 AM79 °FScattered clouds.3 mph89%29.86 "HgN/A
8:30 AM79 °FScattered clouds.3 mph89%29.86 "HgN/A
8:00 AM77 °FScattered clouds.3 mph94%29.86 "Hg5 mi
7:30 AM75 °FThunderstorms. Scattered clouds.1 mph100%29.86 "Hg5 mi
7:00 AM75 °FThunderstorms. Scattered clouds.2 mph100%29.83 "Hg6 mi
6:30 AM73 °FScattered clouds.2 mph100%29.80 "Hg6 mi
6:00 AM73 °FThunderstorms. Passing clouds.3 mph100%29.83 "Hg5 mi
5:30 AM75 °FThundershowers. Passing clouds.5 mph94%29.83 "Hg4 mi
5:00 AM75 °FLight rain. Passing clouds.3 mph94%29.80 "Hg4 mi
4:30 AM75 °FLight rain. Passing clouds.3 mph94%29.80 "Hg4 mi
4:00 AM75 °FThunderstorms. Passing clouds.6 mph94%29.80 "Hg3 mi
3:00 AM75 °FPassing clouds.2 mph100%29.77 "Hg5 mi
2:30 AM75 °FPassing clouds.3 mph100%29.80 "Hg5 mi
2:00 AM75 °FPassing clouds.5 mph94%29.83 "Hg5 mi
1:30 AM75 °FPassing clouds.3 mph94%29.83 "Hg5 mi
1:00 AM75 °FPassing clouds.5 mph100%29.83 "Hg4 mi
12:30 AM75 °FLight rain. Passing clouds.3 mph100%29.83 "Hg4 mi
12:00 AM75 °FThunderstorms. Passing clouds.3 mph94%29.86 "Hg3 mi
11:00 PM
Sun, Mar 1
79 °FThunderstorms. Passing clouds.3 mph89%29.86 "Hg5 mi
10:30 PM79 °FPassing clouds.2 mph94%29.86 "Hg5 mi
10:00 PM79 °FPassing clouds.2 mph100%29.86 "Hg5 mi
9:30 PM79 °FPassing clouds.3 mph100%29.86 "Hg5 mi
9:00 PM81 °FPassing clouds.2 mph94%29.83 "Hg5 mi
8:30 PM81 °FPassing clouds.2 mph100%29.83 "Hg5 mi
8:00 PM81 °FPassing clouds.1 mph94%29.80 "Hg5 mi
Weather by CustomWeather, © 2015

See weather overviewHow to use our weather pages